Location: Unspecified
(0.0000°N, 0.0000°E)
Time: 18:09:23
(UTC+00:00)

STARLINK-5741 - Pass Details

Date: 23 January 2026
Orbit: 558 x 560 km, 43.0° (Epoch: 9 February)

Event Time Altitude Azimuth Distance (km) Brightness Sun altitude
Rises 19:53:51 0° 303° (WNW) 2,721 7.7 -24.0°
Reaches altitude 10° 19:56:12 10° 296° (WNW) 1,829 6.8 -24.5°
Maximum altitude 20:00:09 41° 225° (SW) 815 4.8 -25.4°
Enters shadow 20:01:46 28° 177° (S) 1,057 5.2 -25.8°
